Location: Bois de la Silve
(44.4667°N, 6.7833°E)
Time: 08:49:20
(UTC+00:00)

CZ-2D R/B - Pass Details

Date: 14 July 2020
Orbit: 792 x 844 km, 98.7° (Epoch: 14 August)

Event Time Altitude Azimuth Distance (km) Brightness Sun altitude
Rises 00:39:39 0° 20° (NNE) 3,350 6.8 -22.5°
Reaches altitude 10° 00:42:07 10° 27° (NNE) 2,421 5.7 -22.3°
Maximum altitude 00:47:13 43° 99° (E) 1,143 2.9 -22.1°
Enters shadow 00:49:08 32° 145° (SE) 1,402 3.0 -22.0°
